Regional Weather Roundup
Issued by NWS

Home | Current Version | Previous Version | Graphics & Text | Print | Product List | Glossary On
Versions: 1 2 3 4 5 6 7 8 9 10 11 12 13 14 15 16 17 18 19 20 21 22 23 24 25 26 27 28 29 30 31 32 33 34 35 36 37 38 39 40 41 42 43 44 45 46 47 48 49 50
000
ASUS43 KTOP 170208
RWRKS

WEATHER ROUNDUP FOR KANSAS
NATIONAL WEATHER SERVICE GOODLAND KS
800 PM CST THU NOV 16 2017

NOTE:  "FAIR" INDICATES FEW OR NO CLOUDS BELOW 12,000 FEET WITH NO
SIGNIFICANT WEATHER AND/OR OBSTRUCTIONS TO VISIBILITY.

KSZ001>006-013>018-027>032-041>047-170300-
NORTHWEST KANSAS

CITY           SKY/WX    TMP DP  RH WIND       PRES   REMARKS
GOODLAND       CLOUDY    53  37  54 S15       29.74F
HAYS           CLOUDY    49  38  65 SE13      29.83F
HILL CITY      CLOUDY    53  38  56 SE7       29.81S
RUSSELL        CLOUDY    51  40  65 S15       29.83F
$$

KSZ061>065-074>080-084>089-170300-
SOUTHWEST KANSAS

CITY           SKY/WX    TMP DP  RH WIND       PRES   REMARKS
DODGE CITY     CLEAR     53  43  68 S18       29.86S
ELKHART        CLOUDY    55  39  56 S10       29.83S
GARDEN CITY    CLOUDY    52  41  66 SE16      29.81F
LIBERAL        CLOUDY    52  41  66 S14       29.83F
PRATT          CLEAR     54  49  85 S17       29.89R
$$

KSZ066>073-081>083-090>101-170300-
SOUTHEAST KANSAS

CITY           SKY/WX    TMP DP  RH WIND       PRES   REMARKS
CHANUTE        CLOUDY    56  39  53 SE8       30.00F
COFFEYVILLE    CLOUDY    58  47  66 SE6       30.00F
HUTCHINSON     CLOUDY    56  49  77 SE17      29.90F
MEDICINE LODGE   N/A     54  52  93 S8        29.91R
NEWTON         CLOUDY    56  44  64 SE16      29.93F
PARSONS          N/A    N/A N/A N/A MISG      30.01F
WICHITA INTL   CLOUDY    60  52  74 SE17      29.92F
WICHITA JABRA  CLOUDY    58  47  66 SE9       29.93F
WICHITA MCCONL CLOUDY    59  49  68 S14       29.93F
WINFIELD       CLOUDY    60  50  69 SE10      29.96F
$$

KSZ007>012-019>026-033>040-048>060-102>105-170300-
NORTHEAST KANSAS

CITY           SKY/WX    TMP DP  RH WIND       PRES   REMARKS
CONCORDIA      CLOUDY    49  32  52 SE15      29.88F
EMPORIA        MOCLDY    52  35  52 SE12      29.97F
LAWRENCE       PTCLDY    46  31  55 E9        30.01F
MANHATTAN      CLOUDY    51  32  48 S6        29.93F
MARYSVILLE     CLOUDY    46  32  57 SE13      29.92F
OLATHE IND     CLOUDY    48  30  49 SE12      30.02F
OLATHE EXE     CLOUDY    47  29  49 SE9       30.02F
SALINA         CLOUDY    52  37  56 SE9       29.90F
TOPEKA BILLARD CLOUDY    47  32  56 E10       29.98F
TOPEKA FORBES  PTCLDY    48  32  53 SE10      29.97F
$$




USA.gov is the U.S. government's official web portal to all federal, state and local government web resources and services.